Location: Carillon
(41.6347°N, 88.1336°W)
Time: 05:45:58
(UTC+00:00)

Daily predictions for brighter satellites

Satellite Brightness Start Highest point End
(mag) Time Altitude Azimuth Time Altitude Azimuth Time Altitude Azimuth
SL-8 R/B 4.0 01:48:41 10° WNW 01:53:27 64° NNE 01:58:14 10° ESE
Cosmos 2369 Rocket 3.4 01:50:55 10° SSE 01:55:01 21° E 01:59:06 10° NE
Cosmos 332 Rocket 4.1 01:52:20 10° SSW 01:57:13 78° WNW 02:02:08 10° NNE
Cosmos 1452 Rocket 4.2 01:52:56 10° SSW 01:58:09 63° WNW 02:03:26 10° NNE
USA 186 3.4 01:56:05 10° SSW 01:58:29 29° W 02:01:04 10° NNW
STARLINK-1123 4.1 01:54:27 10° NW 01:58:32 56° NNE 02:02:36 10° ESE
STARLINK-1097 4.0 01:59:25 10° NW 02:03:31 60° NE 02:07:37 10° ESE
EXPRESS MD2 3.7 02:01:26 10° WSW 02:03:57 52° NNW 02:08:09 10° NE
SJ-6B 3.7 02:03:20 10° S 02:06:54 45° W 02:10:31 10° NNW
Lacrosse 5 3.3 02:03:39 10° WNW 02:08:04 31° SW 02:12:27 10° S
STARLINK-1099 3.8 02:04:23 10° NW 02:08:30 65° NE 02:12:36 10° ESE
H-2A ROCKET BODY 4.3 02:05:30 10° S 02:09:52 18° SE 02:19:35 10° E
NOSS 2-2 (C) 3.2 02:08:55 10° SW 02:12:27 83° NW 02:16:17 10° NE
STARLINK-1104 3.7 02:09:22 10° NW 02:13:31 71° NE 02:17:24 11° ESE
ATLAS 2AS CENTAUR R/B 3.7 02:11:18 10° SSE 02:17:59 31° ESE 02:24:44 10° NE
Aureole 2 Rocket 3.5 02:15:20 10° SW 02:18:15 41° WNW 02:21:04 10° N
STARLINK-1144 3.7 02:14:19 10° NW 02:18:28 78° NE 02:22:10 13° ESE
Meteor 1-23 Rocket 4.3 02:14:06 10° S 02:19:40 61° E 02:25:12 10° NNE
NOSS 3-2 (A) 4.5 02:13:49 10° NNW 02:21:12 55° NE 02:28:54 12° SE
Cosmos 1066 Rocket 4.2 02:16:37 10° S 02:21:53 60° E 02:27:09 10° NNE
STARLINK-1103 3.6 02:19:17 10° NW 02:23:27 84° NE 02:26:57 14° SE
STARLINK-52 3.1 02:23:50 10° SSW 02:26:56 48° SE 02:30:03 10° ENE
STARLINK-1101 3.6 02:24:16 10° NW 02:28:25 89° SW 02:31:43 16° SE
COSMOS 2455 4.3 02:30:26 14° SE 02:32:52 17° ESE 02:36:36 10° ENE
STARLINK-1102 3.6 02:29:16 10° NW 02:33:25 82° SW 02:36:32 17° SE
Milstar 3 Cent rocket 4.4 02:27:21 10° SSW 02:33:55 28° SSE 02:45:27 10° E
USA 238 DEB 4.1 02:28:39 10° NNW 02:35:49 62° NE 02:42:03 15° SE
USA 238 4.1 02:28:45 10° NNW 02:35:55 61° NE 02:42:09 15° SE
Okean 1 Rocket 3.1 02:33:28 10° N 02:37:55 69° E 02:41:35 15° SSE
STARLINK-1111 3.6 02:34:16 10° NW 02:38:24 75° SW 02:41:20 19° SE
GPS 2-04 Rocket1 4.4 02:36:53 10° SW 02:38:53 15° SSW 02:40:07 13° S
Spot 2 Rocket 3.7 02:35:31 15° SSE 02:39:37 56° ENE 02:44:34 10° N
Cosmos 1110 Rocket 4.4 02:34:36 10° SSW 02:39:45 68° WNW 02:44:55 10° NNE
SL-4 R/B 2.5 02:37:47 10° WSW 02:42:27 77° NW 02:47:18 10° NE
FALCON 9 DEB 3.4 02:39:36 10° SSW 02:42:51 42° SE 02:46:07 10° ENE
STARLINK-1073 3.7 02:39:14 10° WNW 02:43:22 68° SW 02:46:05 20° SE
STARLINK-1121 3.8 02:44:13 10° WNW 02:48:18 62° SW 02:50:51 22° SSE
SL-27 R/B 3.5 02:45:58 10° N 02:49:12 32° ENE 02:50:47 21° ESE
SPOT 5 4.1 02:46:23 17° ESE 02:49:46 33° ENE 02:54:31 10° N
IGS 5A 3.6 02:48:38 20° SSE 02:51:22 59° ENE 02:55:28 10° N
STARLINK-1106 3.9 02:49:14 10° WNW 02:53:17 56° SW 02:55:39 23° SSE
Cosmos 2263 4.5 02:49:06 10° S 02:54:24 46° ESE 02:59:45 10° NE
ATLAS CENTAUR R/B 2.2 02:52:16 17° S 02:55:02 32° ESE 02:58:48 10° NE
CZ-2C R/B 4.3 02:51:17 10° N 02:56:22 36° WNW 03:01:25 10° SW
STARLINK-1362 4.5 02:56:03 25° SE 02:56:25 25° SE 02:59:43 10° ENE
Okean 2 3.6 02:54:12 20° SSE 02:56:53 53° E 03:00:57 10° NNE
Terra 3.2 02:55:01 17° ESE 02:57:30 26° ENE 03:01:24 10° NNE
STARLINK-1112 4.1 02:54:14 10° WNW 02:58:15 50° SW 03:00:26 24° SSE
Resurs 01 Rocket 2.7 02:55:02 10° S 02:59:14 42° W 03:03:29 10° NNW
Abrixas rocket 3.7 02:57:06 10° W 02:59:24 21° SW 03:00:09 19° SSW
USA 245 2.1 02:58:45 37° SSE 02:59:39 78° ENE 03:02:04 10° N
STARLINK-1373 4.4 03:00:25 27° SE 03:00:45 27° SE 03:04:09 10° ENE
STARLINK-1128 4.2 02:59:14 10° WNW 03:03:12 46° SW 03:05:13 25° SSE
APEX 4.3 02:58:36 10° SSW 03:05:05 67° ESE 03:10:27 10° NNE
STARLINK-1390 4.3 03:04:34 28° SSE 03:05:06 29° SE 03:08:36 10° ENE
Cosmos 1242 Rocket 3.4 03:04:40 29° ESE 03:05:33 33° E 03:08:52 10° NNE
Cosmos 1943 Rocket 2.4 03:00:22 10° SSW 03:05:53 72° WNW 03:11:31 10° NNE
Cosmos 1302 Rocket 4.0 03:00:37 10° SSW 03:05:55 86° WNW 03:11:15 10° NNE
Cosmos 2026 Rocket 4.2 03:02:16 18° SSE 03:06:49 54° E 03:12:59 10° NNE
SPOT 1/Viking Rocket 3.5 03:03:36 22° SSE 03:06:58 73° ENE 03:12:07 10° N
STARLINK-1113 4.3 03:04:16 10° WNW 03:08:10 41° SW 03:10:01 26° S
STARLINK-1365 4.1 03:07:35 23° S 03:09:15 33° SE 03:12:54 10° ENE
STARLINK-1212 4.5 03:06:41 10° NW 03:09:28 28° NNE 03:11:05 18° ENE
STARLINK-1105 4.5 03:07:12 10° NW 03:09:59 29° NNE 03:11:35 18° ENE
STARLINK-1247 4.5 03:08:09 10° NW 03:10:57 29° NNE 03:12:31 19° ENE
STARLINK-1227 4.4 03:08:40 10° NW 03:11:28 29° NNE 03:13:00 19° ENE
STARLINK-1226 4.4 03:09:39 10° NW 03:12:28 30° NNE 03:13:58 20° ENE
STARLINK-1119 4.5 03:09:17 10° WNW 03:13:07 38° SW 03:14:47 26° S
CENTAUR R/B 3.4 03:05:09 10° NNW 03:13:14 64° NE 03:19:26 21° SE
STARLINK-1215 4.4 03:10:39 10° NW 03:13:29 31° NNE 03:14:58 20° ENE
Cosmos 1766 3.3 03:11:04 10° N 03:15:05 83° W 03:17:08 28° S
Cosmos 1486 Rocket 4.2 03:10:16 10° NNW 03:15:30 58° ENE 03:18:11 28° SE
STARLINK-1217 4.3 03:12:38 10° NW 03:15:31 32° NNE 03:16:55 21° ENE
STARLINK-1229 4.3 03:13:36 10° NW 03:16:28 32° NNE 03:17:49 22° ENE
Cosmos 1544 Rocket 4.4 03:12:31 10° N 03:16:31 35° ENE 03:17:56 28° ESE
STARLINK-1270 4.3 03:14:37 10° NW 03:17:32 33° NNE 03:18:52 23° ENE
STARLINK-1189 4.2 03:16:44 10° NW 03:19:41 34° NNE 03:20:56 24° ENE
ATLAS 3B R/B 3.8 03:14:25 10° NNW 03:20:34 35° NE 03:25:46 15° ESE
STARLINK-1188 4.2 03:17:48 10° NW 03:20:46 35° NNE 03:21:59 25° ENE
STARLINK-1191 4.1 03:20:20 10° NW 03:23:17 36° NNE 03:24:22 27° ENE
Cosmos 1992 Rocket 4.1 03:21:20 26° S 03:24:06 53° ESE 03:29:09 10° NNE
STARLINK-1221 4.1 03:21:28 10° NW 03:24:26 37° NNE 03:25:28 28° ENE
STARLINK-1338 3.7 03:23:32 35° S 03:24:34 44° SE 03:28:18 10° ENE
STARLINK-1209 3.6 03:21:41 10° NW 03:25:06 53° NNE 03:26:15 35° E
STARLINK-1222 4.0 03:22:30 10° NW 03:25:28 37° NNE 03:26:28 29° ENE
STARLINK-1214 4.0 03:23:39 10° NW 03:26:41 39° NNE 03:27:39 30° ENE
Cosmos 1656 Rocket 3.7 03:22:48 19° S 03:26:43 60° ESE 03:32:13 10° NNE
Meteor 1-21 4.2 03:25:54 25° S 03:29:11 67° E 03:34:45 10° NNE
STARLINK-1371 3.5 03:31:19 34° SSW 03:32:41 52° SE 03:36:31 10° ENE
NOSS 3-2 (C) 4.1 03:26:15 10° NW 03:33:58 88° NE 03:39:06 27° SE
Cosmos 292 Rocket 4.0 03:30:53 11° SSW 03:35:26 71° WNW 03:40:19 10° NNE
STARLINK-1234 3.4 03:33:04 10° NW 03:36:36 64° NE 03:37:24 47° E
STARLINK-1341 3.4 03:35:17 33° SSW 03:36:48 56° SE 03:40:40 10° ENE
Cosmos 2369 Rocket 2.9 03:33:00 10° SW 03:38:34 56° WNW 03:44:08 10° NNE
STARLINK-1228 3.4 03:35:05 10° NW 03:38:42 67° NE 03:39:31 48° E
ATLAS 3B CENTAUR R/B 3.9 03:24:53 10° WSW 03:38:52 37° SSW 03:42:25 27° SSE
NOSS 3-4 (A) 3.3 03:34:36 10° SSW 03:40:30 89° ESE 03:46:47 10° NE
NOSS 3-4 (C) 3.3 03:34:42 10° SSW 03:40:36 88° ESE 03:46:54 10° NE
STARLINK-1374 3.4 03:39:17 32° SSW 03:40:54 61° SE 03:44:47 10° ENE
ERS-1 Rocket 3.0 03:39:13 31° S 03:41:37 74° WSW 03:46:40 10° NNW
Cosmos 1655 Rocket 4.5 03:40:04 31° SE 03:42:26 44° E 03:48:20 10° NNE
STARLINK-1187 3.2 03:39:13 10° NW 03:42:29 61° NE 03:42:52 56° ENE
BREEZE-M DEB (TANK) 3.6 03:31:22 10° WNW 03:42:38 81° SW 03:44:45 35° SE
STARLINK-1339 3.3 03:43:14 30° SSW 03:45:03 67° SE 03:48:58 10° ENE
Cosmos 1975 Rocket 3.9 03:42:41 18° SSW 03:45:46 48° W 03:50:03 10° N
Cosmos 1025 Rocket 3.2 03:45:12 46° SE 03:45:57 53° E 03:50:10 10° NNE
STARLINK-1320 2.9 03:46:51 69° NE 03:46:51 69° NE 03:49:40 10° NE
STARLINK-1322 2.9 03:47:10 70° NNE 03:47:10 70° NNE 03:50:01 10° NE
STARLINK-1324 3.0 03:47:31 69° NNE 03:47:31 69° NNE 03:50:20 10° NE
STARLINK-1294 3.0 03:47:53 64° NE 03:47:53 64° NE 03:50:37 10° NE
STARLINK-1261 2.9 03:48:09 71° NNE 03:48:09 71° NNE 03:51:00 10° NE
STARLINK-1325 2.9 03:48:28 72° NNE 03:48:28 72° NNE 03:51:21 10° NE
STARLINK-1333 2.9 03:48:50 72° NNE 03:48:50 72° NNE 03:51:43 10° NE
STARLINK-1334 3.0 03:49:10 70° NNE 03:49:10 70° NNE 03:52:02 10° NE
STARLINK-1377 3.3 03:47:12 27° SW 03:49:12 72° SE 03:53:08 10° NE
STARLINK-1326 3.0 03:49:29 71° NNE 03:49:29 71° NNE 03:52:22 10° NE
STARLINK-1323 3.0 03:49:48 72° NNE 03:49:48 72° NNE 03:52:42 10° NE
STARLINK-1349 3.0 03:50:07 71° NNE 03:50:07 71° NNE 03:53:01 10° NE
STARLINK-1336 3.0 03:50:25 72° N 03:50:25 72° N 03:53:22 10° NE
STARLINK-1331 3.0 03:50:46 72° N 03:50:46 72° N 03:53:44 10° NE
STARLINK-1344 3.0 03:51:05 72° N 03:51:05 72° N 03:54:02 10° NE
STARLINK-1343 3.0 03:51:25 73° N 03:51:25 73° N 03:54:24 10° NE
STARLINK-1346 3.0 03:51:37 74° NNW 03:51:37 74° NNW 03:54:44 10° NE
STARLINK-1328 3.0 03:52:06 72° N 03:52:06 72° N 03:55:05 10° NE
STARLINK-1354 3.0 03:52:25 71° N 03:52:25 71° N 03:55:24 10° NE
STARLINK-1347 3.0 03:52:43 71° NNW 03:52:43 71° NNW 03:55:43 10° NE
STARLINK-1357 3.0 03:53:04 71° NNW 03:53:04 71° NNW 03:56:06 10° NE
STARLINK-1335 3.0 03:53:22 71° NNW 03:53:22 71° NNW 03:56:24 10° NE
STARLINK-1353 3.3 03:51:06 24° SW 03:53:22 79° SE 03:57:19 10° NE
STARLINK-1327 3.0 03:53:44 70° NNW 03:53:44 70° NNW 03:56:45 10° NE
Cosmos 1470 2.6 03:49:52 10° N 03:53:44 82° E 03:54:15 65° SSE
STARLINK-1340 3.0 03:54:03 70° NNW 03:54:03 70° NNW 03:57:06 10° NE
STARLINK-1356 3.1 03:54:23 69° NNW 03:54:23 69° NNW 03:57:26 10° NE
STARLINK-1345 3.1 03:54:41 69° NNW 03:54:41 69° NNW 03:57:46 10° NE
STARLINK-1355 3.1 03:55:00 68° NNW 03:55:00 68° NNW 03:58:06 10° NE
Cosmos 1726 3.3 03:51:56 10° NNE 03:55:12 29° ENE 03:55:12 29° ENE
STARLINK-1321 3.1 03:55:20 68° NNW 03:55:20 68° NNW 03:58:26 10° NE
STARLINK-1358 3.1 03:55:41 67° NW 03:55:41 67° NW 03:58:49 10° NE
Cosmos 1867 3.6 03:50:13 10° NNW 03:55:42 78° ENE 03:57:37 41° SE
STARLINK-1332 3.1 03:55:58 67° NW 03:56:00 67° NW 03:59:06 10° NE
Cosmos 968 Rocket 3.4 03:51:00 10° NNW 03:56:09 79° WSW 03:57:51 43° S
STARLINK-1348 3.1 03:56:18 66° NW 03:56:19 66° NW 03:59:26 10° NE
STARLINK-1330 3.1 03:56:39 66° NW 03:56:41 66° NW 03:59:47 10° NE
STARLINK-1363 3.2 03:56:57 65° NW 03:56:59 65° NW 04:00:05 10° NE
STARLINK-1337 3.2 03:57:17 64° NW 03:57:21 65° NW 04:00:28 10° NE
STARLINK-1375 3.3 03:55:08 22° SW 03:57:33 85° SE 04:01:31 10° NE
STARLINK-1342 3.2 03:57:37 64° NW 03:57:42 64° NW 04:00:48 10° NE
STARLINK-1364 3.2 03:57:57 63° NW 03:58:02 64° NW 04:01:08 10° NE
STARLINK-1376 3.2 03:58:17 63° NW 03:58:22 63° NW 04:01:29 10° NE
STARLINK-1360 3.2 03:58:35 62° NW 03:58:43 63° NW 04:01:49 10° NE
STARLINK-1361 3.3 03:58:57 62° NW 03:59:03 62° NW 04:02:10 10° NE
STARLINK-1367 3.3 03:59:10 60° WNW 03:59:22 62° NW 04:02:28 10° NE
STARLINK-1366 3.3 03:59:34 60° NW 03:59:43 61° NW 04:02:49 10° NE
Cosmos 1340 Rocket 3.7 03:56:34 10° N 04:00:20 35° ENE 04:00:36 35° E
ATLAS 5 CENTAUR R/B 1.9 03:54:17 10° SW 04:01:42 79° SE 04:04:24 10° NE
STARLINK-1350 3.4 03:59:06 20° SW 04:01:43 89° NW 04:05:41 10° NE
In-Cosmos 22 4.4 04:04:12 43° SE 04:05:14 49° E 04:10:19 10° NNE
STARLINK-1352 3.4 04:03:09 18° SW 04:05:58 82° NW 04:09:56 10° NE
RESURS DK-1 3.0 04:08:26 41° E 04:08:26 41° E 04:11:46 10° NE
ATLAS 2AS CENTAUR R/B 3.4 04:00:38 10° SW 04:08:32 66° NW 04:16:28 10° NNE
STARLINK-1368 3.5 04:07:11 16° WSW 04:10:14 76° NW 04:14:11 10° NE
STARLINK-1369 3.7 04:11:15 15° WSW 04:14:29 71° NW 04:18:26 10° NE
Cosmos 1953 2.4 04:10:48 10° N 04:14:44 60° E 04:14:45 60° E
Cosmos 1455 Rocket 4.3 04:12:57 10° NNW 04:16:51 33° W 04:18:11 27° SW
Cosmos 1271 Rocket 3.7 04:16:44 34° WSW 04:17:47 43° WNW 04:21:34 10° N
COSMOS 2455 3.0 04:13:27 18° SW 04:18:04 75° WNW 04:24:08 10° NNE
STARLINK-1372 3.8 04:15:17 13° WSW 04:18:47 66° NW 04:22:43 10° NE
Thor Agena Rocket 3.6 04:17:06 10° NNE 04:22:20 60° ESE 04:23:11 53° SE
STARLINK-1219 4.5 04:18:29 10° NW 04:22:29 45° NNE 04:23:30 37° ENE
SL-4 R/B 4.4 04:18:35 10° WNW 04:22:47 29° NNW 04:27:02 10° NE
STARLINK-1378 3.9 04:19:18 11° WSW 04:23:02 61° NW 04:26:58 10° NE
Meteor 2-19 Rocket 4.4 04:22:19 46° SSE 04:24:12 72° E 04:30:17 10° NNE
STARLINK-1379 4.1 04:23:29 10° WSW 04:27:23 56° NW 04:31:18 10° NE
STARLINK-1211 4.3 04:23:26 10° NW 04:27:28 49° NNE 04:28:17 42° ENE
SPOT 5 4.3 04:25:37 24° SW 04:27:44 33° W 04:32:33 10° NNW
COSMOS 2487 2.9 04:24:53 10° NNW 04:27:45 58° NNW 04:27:45 58° NNW
Cosmos 1707 3.5 04:28:49 41° WSW 04:29:23 44° W 04:33:07 10° N
STARLINK-1329 4.2 04:26:54 10° WSW 04:30:48 53° NNW 04:34:41 10° NE
STARLINK-1245 4.2 04:28:24 10° NW 04:32:28 52° NNE 04:33:03 48° ENE
Cosmos 1758 4.3 04:29:15 10° NNW 04:33:02 38° W 04:33:29 37° WSW
ATLAS CENTAUR R/B 3.3 04:30:07 10° WSW 04:33:55 28° NW 04:37:33 10° NNE
SJ 16-02 4.0 04:33:26 10° NE 04:34:05 10° NE 04:34:43 10° ENE
Meteor 2-10 3.9 04:29:36 10° NNW 04:34:38 74° W 04:35:34 57° SSW
Terra 2.9 04:33:54 30° SW 04:35:05 34° W 04:39:25 10° NNW
STARLINK-1362 4.4 04:31:19 10° WSW 04:35:12 50° NNW 04:39:07 10° NE
STARLINK-1233 4.0 04:33:21 10° NW 04:37:27 57° NE 04:37:50 54° ENE
Timation 2 Rocket 4.3 04:32:05 10° NNW 04:38:13 56° ENE 04:40:11 39° ESE
STARLINK-1373 4.5 04:35:44 10° WSW 04:39:35 47° NNW 04:43:26 10° NE
EO 1 Del DPAF 3.4 04:36:35 10° NNE 04:39:53 66° NNE 04:39:53 66° NNE
STARLINK-1204 3.9 04:38:19 10° NW 04:42:26 61° NE 04:42:36 61° NE
Meteor 1-24 Rocket 4.5 04:43:16 34° E 04:43:36 34° E 04:48:30 10° NNE
STARLINK-1238 3.8 04:43:17 10° NW 04:47:24 67° NNE 04:47:24 67° NNE
Meteor 2-15 4.3 04:41:27 10° N 04:47:36 85° E 04:49:06 54° SSE
SeaSat 1 2.4 04:45:12 10° NNE 04:50:06 61° ESE 04:50:07 61° ESE
Cosmos 2297 Rocket 3.7 04:46:08 10° N 04:51:00 28° NE 04:53:23 21° E
STARLINK-1201 3.8 04:48:15 10° NW 04:52:10 70° N 04:52:10 70° N
Aureole 3 4.5 04:49:26 10° N 04:51:09 31° N 04:51:09 31° N
S3M 4.4 04:47:10 10° NNW 04:53:11 55° W 04:55:11 39° SW
Cosmos 2084 4.3 04:52:00 32° WSW 04:53:39 48° NW 04:58:01 10° NNE
Cosmos 2219 4.3 04:48:35 10° N 04:53:46 36° ENE 04:55:42 28° E
Cosmos 2315 Rocket 3.9 04:50:22 10° N 04:56:36 79° E 04:58:03 55° SSE
STARLINK-1206 3.8 04:53:13 10° NW 04:56:57 68° NNW 04:56:57 68° NNW
STARLINK-1205 3.9 04:58:11 10° NW 05:01:43 63° NW 05:01:43 63° NW
CENTAUR R/B 4.1 04:56:25 10° NW 05:03:46 35° WSW 05:06:36 29° SW
STARLINK-1218 4.1 05:03:11 10° NW 05:06:32 56° NW 05:06:32 56° NW
Meteor 2-15 Rocket 4.4 05:03:28 10° N 05:09:37 81° W 05:10:54 58° S
Cosmos 1908 3.9 05:07:12 10° NNW 05:10:15 52° NW 05:10:15 52° NW
ATLAS 3B R/B 2.9 05:04:53 10° NW 05:11:33 56° WSW 05:13:00 48° SSW
STARLINK-1254 4.3 05:08:10 10° NW 05:11:18 50° WNW 05:11:18 50° WNW
Cosmos 1697 Rocket 4.0 05:15:48 25° E 05:15:48 25° E 05:19:59 10° NE
STARLINK-1231 4.5 05:13:08 10° NW 05:16:04 44° WNW 05:16:04 44° WNW
Spot 4 4.2 05:18:52 51° WSW 05:19:01 51° W 05:23:45 10° NNW
Cosmos 2058 Rocket 3.3 05:15:43 10° N 05:19:55 61° ENE 05:19:55 61° ENE
Cosmos 1606 Rocket 3.8 05:16:08 10° NNW 05:20:06 60° WNW 05:20:06 60° WNW
ALOS 2 2.6 05:23:18 78° N 05:23:18 78° N 05:27:26 10° NNW
Cosmos 1300 3.7 05:21:55 10° N 05:24:49 42° NE 05:24:49 42° NE
ATLAS CENTAUR R/B 3.6 05:24:13 10° N 05:26:05 20° NE 05:26:05 20° NE
Cosmos 2227 Rocket 2.9 05:23:24 10° NNW 05:28:53 47° ENE 05:30:28 37° ESE
EO 1 Delta rocket 4.2 05:24:29 10° NNE 05:29:25 54° E 05:29:25 54° E
Cosmos 1726 4.5 05:27:49 10° NW 05:29:42 16° WNW 05:29:42 16° WNW
Cosmos 1674 4.3 05:30:36 28° WNW 05:30:36 28° WNW 05:33:38 10° NNW
Cosmos 192 4.3 05:34:26 70° E 05:34:26 70° E 05:39:14 10° NNE
Helios 1B rocket 4.2 05:32:03 10° NE 05:34:34 22° ENE 05:34:34 22° ENE
Meteor 2-5 Rocket 4.1 05:41:39 46° WSW 05:42:43 53° WNW 05:48:15 10° N
STARLINK-1236 4.4 05:40:24 10° NW 05:44:25 47° NNE 05:44:41 46° NE
Cosmos 921 Rocket 3.9 05:45:08 39° WNW 05:45:16 39° WNW 05:49:23 10° N
Cosmos 1763 Rocket 3.9 05:45:56 47° E 05:45:56 47° E 05:50:33 10° NNE
Cosmos 2228 4.3 05:42:28 10° NNW 05:45:44 31° WNW 05:45:44 31° WNW
Cosmos 1602 Rocket 4.4 05:46:55 41° ENE 05:46:55 41° ENE 05:50:27 10° NNE
FALCON 9 R/B 3.8 05:53:12 31° SE 05:53:12 31° SE 06:00:24 10° ESE
Cosmos 1745 Rocket 4.0 05:50:15 57° SE 05:51:16 66° E 05:57:21 10° NNE
Lacrosse 4 Rocket 2.7 05:47:36 10° N 05:51:31 33° NE 05:52:03 32° ENE
STARLINK-1269 4.2 05:50:20 10° NW 05:54:15 55° NNE 05:54:15 55° NNE
BREEZE-M DEB (TANK) 3.4 05:50:21 10° W 05:54:53 34° NNW 05:57:16 10° NE
Okean 1-7 Rocket 4.3 05:55:39 45° WNW 05:55:39 45° WNW 05:59:58 10° N
BREEZE-M DEB (TANK) 3.3 05:53:12 10° WNW 05:56:42 86° NNE 06:03:38 10° ESE
STARLINK-1200 4.2 05:55:18 10° NW 05:59:02 57° N 05:59:02 57° N
Cosmos 1626 3.6 06:00:57 31° NW 06:00:57 31° NW 06:03:37 10° N
CZ-4C R/B 1.8 06:00:11 81° SSW 06:00:27 89° ESE 06:06:15 10° NE
Cosmos 1455 3.9 05:58:29 10° NNE 06:01:16 25° ENE 06:01:16 25° ENE
Meteor 2-10 Rocket 4.3 05:57:15 10° N 06:02:04 40° ENE 06:02:55 37° E
Helios 1A 3.6 06:04:48 51° NW 06:04:48 51° NW 06:08:12 10° NNW
STARLINK-1192 4.2 06:00:16 10° NW 06:03:49 56° N 06:03:49 56° N
STARLINK-1244 4.2 06:05:13 10° NW 06:08:34 54° NNW 06:08:34 54° NNW
Cosmos 1980 Rocket 2.9 06:12:35 39° ESE 06:12:53 39° ESE 06:18:06 10° NE
SJ 16-02 1.5 06:08:52 10° NNW 06:12:51 71° NNW 06:12:51 71° NNW
CZ-4 R/B 3.7 06:09:05 10° NNE 06:13:44 76° E 06:13:44 76° E
STARLINK-1138 4.3 06:10:11 10° NW 06:13:20 50° NW 06:13:20 50° NW
Cosmos 1386 Rocket 4.3 06:14:54 62° SSW 06:16:02 86° W 06:22:19 10° N
STARLINK-1143 4.4 06:15:11 10° NW 06:18:09 46° NW 06:18:09 46° NW
Cosmos 2369 3.5 06:21:00 70° S 06:21:39 83° ESE 06:27:20 10° NNE
ERBS 4.2 06:18:29 10° NW 06:20:26 29° NNW 06:20:26 29° NNW
Cosmos 540 Rocket 3.8 06:23:15 51° ESE 06:23:25 51° ESE 06:28:23 10° NNE
Cosmos 1758 Rocket 3.9 06:26:51 56° E 06:26:51 56° E 06:30:58 10° NNE
Cosmos 2263 Rocket 4.3 06:27:41 10° N 06:32:04 23° NE 06:36:25 10° ESE
Cosmos 468 Rocket 4.3 06:33:03 49° W 06:33:44 52° WNW 06:38:46 10° N
Cosmos 2297 Rocket 2.6 06:29:51 10° NW 06:35:10 44° WSW 06:35:10 44° WSW
Cosmos 2360 4.1 06:35:49 66° S 06:36:40 83° ESE 06:42:24 10° NNE
Cosmos 2219 4.1 06:32:50 10° NW 06:37:35 33° W 06:37:35 33° W
Cosmos 1709 Rocket 3.9 06:38:36 57° S 06:39:57 87° E 06:46:10 10° N
USA 215 3.2 06:35:30 21° SE 06:40:08 88° NE 06:46:43 10° NW
STARLINK-1301 4.2 06:43:14 48° NE 06:43:14 48° NE 06:46:03 10° NE
SL-16 R/B 3.8 06:39:30 16° ESE 06:43:51 36° ENE 06:49:23 10° N
STARLINK-1289 4.3 06:45:29 45° NE 06:45:29 45° NE 06:48:09 10° NE
Cosmos 1953 Rocket 4.1 06:44:45 48° E 06:44:53 49° E 06:49:08 10° NNE
Cosmos 1937 Rocket 3.3 06:39:50 10° NNW 06:45:07 78° WSW 06:45:39 70° SSW
STARLINK-26 4.5 06:46:32 39° N 06:46:32 39° N 06:49:12 10° NE
SL-19 R/B 4.4 06:40:37 10° NNE 06:46:18 69° ESE 06:47:39 52° SSE
STARLINK-1303 4.2 06:48:42 48° NE 06:48:42 48° NE 06:51:30 10° NE
STARLINK-1283 3.8 06:49:10 68° NNE 06:49:10 68° NNE 06:52:52 10° NE
Cosmos 2082 3.6 06:43:32 10° NNW 06:49:09 69° WSW 06:49:50 62° SSW
Cosmos-2242 3.0 06:45:02 10° N 06:49:16 69° E 06:49:17 69° E
GP-B 4.2 06:46:19 10° NNE 06:50:25 35° E 06:51:08 33° ESE
STARLINK-1312 4.0 06:51:59 52° NNE 06:51:59 52° NNE 06:54:56 10° NE
Meteor 2-1 Rocket 4.4 06:45:54 10° NNW 06:51:16 51° W 06:51:52 49° WSW
Cosmos 2322 Rocket 4.0 06:49:46 17° ESE 06:51:23 19° E 06:55:13 10° NE
Cosmos 1898 Rocket 3.9 06:47:36 10° NNW 06:52:42 47° WSW 06:52:43 47° WSW
STARLINK-48 4.4 06:57:13 41° E 06:57:13 41° E 06:59:59 10° ENE
Cosmos 2278 3.7 06:57:14 54° SW 06:58:27 73° WNW 07:04:08 10° NNE
Cosmos 1697 Rocket 3.3 06:57:30 37° WSW 06:59:06 47° WNW 07:04:36 10° NNE
Cosmos 372 Rocket 4.2 06:54:55 10° NNW 07:00:03 64° ENE 07:01:47 40° SE
Cosmos 2285 Rocket 3.9 06:55:32 10° NNW 07:01:53 76° WSW 07:03:42 49° S
STARLINK-80 3.9 07:02:58 57° NNW 07:02:58 57° NNW 07:06:35 10° NE
CZ-4C R/B 4.4 07:05:45 35° ESE 07:07:03 46° ENE 07:11:19 10° N
Cosmos 1814 Rocket 4.1 07:06:54 55° SW 07:07:56 70° WNW 07:13:14 10° NNE
BREEZE-M DEB (TANK) 3.5 07:06:59 10° NW 07:09:12 27° NNW 07:09:12 27° NNW
Helios 1B rocket 3.8 07:07:10 10° N 07:10:40 27° WNW 07:10:53 27° WNW
Resurs 1-4 Rocket 2.6 07:06:18 10° NNE 07:11:29 50° E 07:13:02 38° SSE
STARLINK-1268 4.4 07:12:12 34° N 07:12:12 34° N 07:14:34 10° NE
Cosmos 2227 Rocket 3.5 07:08:04 10° NW 07:12:15 25° W 07:12:15 25° W
STARLINK-1297 4.0 07:14:56 47° NNW 07:14:56 47° NNW 07:18:18 10° NE
STARLINK-1277 4.5 07:15:37 38° ESE 07:15:37 38° ESE 07:18:56 10° ENE
STARLINK-58 4.1 07:16:21 42° N 07:16:21 42° N 07:18:49 10° NE
STARLINK-1316 4.4 07:16:06 34° NNW 07:16:06 34° NNW 07:18:40 10° NE
STARLINK-1257 4.4 07:16:57 34° NNW 07:16:57 34° NNW 07:19:35 10° NE
IRAS Rocket 4.2 07:15:35 51° SSW 07:16:55 70° WSW 07:22:27 10° NNW
STARLINK-1256 4.4 07:17:52 34° NNW 07:17:52 34° NNW 07:20:30 10° NE
NOSS 2-1 (C) 4.1 07:18:53 35° E 07:18:53 35° E 07:21:31 10° NE
STARLINK-1213 4.4 07:18:44 33° NNW 07:18:44 33° NNW 07:21:24 10° NE
Cosmos 841 Rocket 4.1 07:18:02 39° WSW 07:19:15 46° WNW 07:24:17 10° N
STARLINK-1263 4.4 07:19:36 33° NNW 07:19:36 33° NNW 07:22:16 10° NE
STARLINK-1276 4.2 07:20:25 43° ESE 07:20:25 43° ESE 07:23:58 10° ENE
STARLINK-1259 4.4 07:20:29 33° NNW 07:20:29 33° NNW 07:23:12 10° NE
Cosmos 1825 Rocket 4.1 07:20:23 42° W 07:20:33 42° WNW 07:24:42 10° N
STARLINK-1265 4.4 07:20:49 33° NNW 07:20:49 33° NNW 07:23:36 10° NE
STARLINK-1285 4.4 07:21:20 32° NNW 07:21:20 32° NNW 07:24:05 10° NE
BREEZE-M DEB (TANK) 4.3 07:22:25 21° NE 07:22:25 21° NE 07:23:26 10° NE
Cosmos 1125 Rocket 4.4 07:17:36 10° N 07:22:37 46° ENE 07:26:34 16° SE
STARLINK-1296 4.4 07:23:05 31° NNW 07:23:05 31° NNW 07:25:53 10° NE
STARLINK-1306 4.0 07:23:15 50° SE 07:23:15 50° SE 07:27:07 10° ENE
NOSS 2-1 (D) 3.8 07:23:38 41° E 07:23:38 41° E 07:26:28 10° NE
STARLINK-1260 4.4 07:23:55 31° NNW 07:23:55 31° NNW 07:26:45 10° NE
STARLINK-1318 4.5 07:24:48 31° NNW 07:24:49 31° NNW 07:27:40 10° NE
STARLINK-1305 4.0 07:25:10 49° ESE 07:25:10 49° ESE 07:28:57 10° ENE
STARLINK-1275 4.5 07:25:41 30° NNW 07:25:44 30° NNW 07:28:34 10° NE
SL-16 R/B 2.8 07:24:07 34° SSE 07:26:00 46° ESE 07:31:24 10° NE
STARLINK-1309 4.5 07:26:33 30° NNW 07:26:39 30° NNW 07:29:27 10° NE
Spot 1 4.5 07:26:03 53° SW 07:26:41 57° W 07:31:41 10° NNW
Cosmos 2074 Rocket 4.0 07:24:26 39° S 07:26:57 80° E 07:33:15 10° N
STARLINK-1282 4.5 07:27:25 29° NNW 07:27:32 29° NNW 07:30:21 10° NE
STARLINK-1262 3.8 07:30:00 55° SE 07:30:00 55° SE 07:33:59 10° ENE
Lacrosse 4 Rocket 3.3 07:26:40 10° NW 07:28:20 18° WNW 07:28:20 18° WNW
STARLINK-1307 4.5 07:31:03 33° WNW 07:31:48 37° NNW 07:35:12 10° NE
Cosmos 2298 Rocket 3.9 07:27:59 10° NNW 07:33:19 81° WSW 07:35:12 41° S
STARLINK-1300 3.6 07:34:47 60° SSE 07:34:54 60° SE 07:39:00 10° ENE
Cosmos 1455 4.2 07:34:26 10° NW 07:36:11 17° WNW 07:36:11 17° WNW
STARLINK-1295 3.5 07:39:33 63° SSE 07:39:52 67° SE 07:43:59 10° ENE
CZ-2D R/B 2.0 07:34:47 10° NNE 07:40:01 87° ESE 07:41:49 43° SSW
BREEZE-M DEB (TANK) 3.2 07:41:43 45° SSW 07:43:04 66° SE 07:55:18 10° ENE
SL-4 R/B 3.3 07:39:30 10° NW 07:44:13 50° NNE 07:48:45 10° ESE
STARLINK-1029 4.0 07:44:33 36° NW 07:44:48 37° NNW 07:47:48 10° NE
STARLINK-1287 3.5 07:44:19 63° SSW 07:44:49 73° SE 07:48:57 10° NE
DELTA 2 DEB (DPAF) 4.5 07:45:58 43° WSW 07:46:18 44° W 07:50:36 10° NNW
STARLINK-1299 3.6 07:47:47 56° SW 07:48:41 88° NNW 07:52:57 10° NE
Cosmos 2360 Rocket 3.5 07:46:14 18° SSE 07:49:20 30° ESE 07:54:11 10° NE
CZ-4C R/B 4.3 07:46:01 10° WNW 07:49:55 20° NNW 07:54:21 10° NNE
Cosmos 2184 Rocket 4.0 07:48:41 36° SSW 07:51:17 70° W 07:57:27 10° N
STARLINK-1302 3.5 07:53:53 55° SW 07:54:46 87° SE 07:58:55 10° NE
Cosmos 1980 Rocket 3.4 07:54:20 21° W 07:56:57 31° NW 08:01:57 10° N
Cosmos 1076 Rocket 4.1 07:55:10 29° SSE 07:57:05 52° E 08:01:21 10° NNE
CRYOSAT 2 4.3 07:53:04 10° N 07:58:00 88° E 08:00:05 35° S
Cosmos 1892 3.3 07:56:58 34° SSE 07:58:13 51° E 08:01:54 10° NNE
STARLINK-1273 3.5 07:58:39 49° WSW 07:59:44 86° NW 08:03:54 10° NE
CBERS-1 4.2 07:54:50 10° NNE 07:59:56 66° ESE 08:02:34 29° S
Cosmos 1610 Rocket 4.4 07:57:00 31° S 08:00:11 88° W 08:06:25 10° N
Cosmos 1869 3.2 07:57:07 10° N 08:00:59 79° E 08:02:21 39° SSE
MOZ.5/SAFIR/RUBIN 5/SL-8 4.3 08:02:41 35° WSW 08:03:23 37° W 08:07:42 10° NNW
STARLINK-1288 3.6 08:03:26 43° WSW 08:04:43 79° NW 08:08:52 10° NE
STARLINK-64 4.1 08:04:31 30° W 08:05:44 42° NNW 08:09:11 10° NE
STARLINK-1308 3.7 08:08:15 38° WSW 08:09:44 72° NW 08:13:53 10° NE
NOSS 2-1 (E) 3.3 08:11:45 41° W 08:12:32 52° NW 08:16:03 10° NNE
Cosmos 1400 Rocket 4.2 08:09:53 10° NW 08:13:11 23° W 08:13:16 23° W
STARLINK-61 3.4 08:12:43 43° SW 08:13:56 87° NNW 08:17:52 10° NE
STARLINK-25 4.1 08:14:07 32° SSE 08:14:35 34° SE 08:17:43 10° ENE
Cosmos 2263 Rocket 2.2 08:10:54 10° NNW 08:16:22 57° WSW 08:19:55 21° S
STARLINK-1304 3.9 08:17:48 30° WSW 08:19:41 61° NW 08:23:48 10° NE
STARLINK-1278 4.2 08:18:55 25° W 08:21:08 53° NNW 08:25:18 10° NE
ADEOS II 2.1 08:16:38 10° NNE 08:21:55 82° ESE 08:25:17 23° S
IRIDIUM 106 4.3 08:18:52 25° S 08:22:01 85° W 08:27:17 10° N
Cosmos 962 Rocket 4.5 08:18:04 20° S 08:22:26 82° E 08:28:39 10° N
CZ-4B R/B 3.9 08:17:22 10° N 08:22:29 54° WNW 08:25:12 27° SW
STARLINK-1280 4.3 08:20:42 24° W 08:22:58 52° NNW 08:27:09 10° NE
USA 215 4.1 08:22:46 24° SW 08:23:36 25° SW 08:28:49 10° WNW
NPP 4.2 08:20:04 10° N 08:25:08 43° WNW 08:27:55 24° SW
Cosmos 2154 Rocket 4.2 08:21:54 26° SSW 08:25:28 59° W 08:31:38 10° N
Shenzhou-11 Module 1.7 08:25:20 56° NW 08:25:36 63° N 08:28:02 10° E
IDEFIX/ARIANE 42P 4.2 08:22:09 10° NE 08:26:42 29° E 08:31:12 10° SSE
SL-16 R/B 3.1 08:24:35 25° SW 08:27:22 37° W 08:33:03 10° NNW
STARLINK-81 3.9 08:26:24 33° S 08:27:30 44° SE 08:30:58 10° ENE
STARLINK-54 3.6 08:28:09 34° SSW 08:29:19 51° SE 08:32:51 10° ENE
Cosmos 2221 3.0 08:25:24 10° NNW 08:29:32 43° W 08:31:15 29° SW
IRS-1D 3.6 08:24:28 10° N 08:29:42 67° WNW 08:32:45 25° SSW
STARLINK-77 3.8 08:29:34 32° S 08:30:47 47° SE 08:34:17 10° ENE
STARLINK-1048 4.4 08:30:16 26° S 08:32:01 39° SE 08:35:54 10° ENE
Cosmos 1842 Rocket 4.4 08:29:14 10° NNW 08:33:13 32° W 08:34:41 26° SW
Cosmos 1408 2.5 08:31:51 27° S 08:33:45 86° E 08:37:27 10° N
IRS-1C 4.1 08:29:01 10° NNE 08:34:24 86° ESE 08:38:18 19° SSW
Cosmos 2322 Rocket 2.4 08:31:35 24° SW 08:34:53 59° WNW 08:40:27 10° NNE
Cosmos 1825 2.7 08:32:28 18° SSE 08:35:01 55° E 08:38:43 10° NNE
STARLINK-1286 4.4 08:32:36 20° W 08:35:13 47° NNW 08:39:16 10° NE
STARLINK-79 3.6 08:34:16 31° SSW 08:35:40 53° SE 08:39:12 10° ENE
In-Cosmos 22 Rocket 4.3 08:33:14 24° SSW 08:36:37 59° WNW 08:42:04 10° N
STARLINK-1049 4.3 08:35:03 25° SSW 08:36:59 43° SE 08:40:56 10° ENE
STARLINK-78 3.5 08:35:49 31° SSW 08:37:15 56° SE 08:40:49 10° ENE
ARIANE 5 R/B 2.7 08:32:36 10° NNE 08:37:37 68° ESE 08:41:39 16° S
STARLINK-57 3.4 08:37:28 31° SSW 08:38:59 62° SE 08:42:34 10° ENE
STARLINK-1281 4.4 08:36:56 18° W 08:39:39 45° NNW 08:43:40 10° NE
STARLINK-49 3.4 08:38:57 30° SSW 08:40:30 60° SE 08:44:04 10° ENE
STARLINK-1051 4.1 08:39:48 24° SSW 08:41:55 48° SE 08:45:55 10° ENE
STARLINK-27 3.4 08:40:31 29° SSW 08:42:07 62° SE 08:45:42 10° ENE
STARLINK-74 3.3 08:42:04 29° SSW 08:43:44 64° SE 08:47:19 10° ENE
STARLINK-39 3.3 08:43:32 28° SW 08:45:15 67° SE 08:48:50 10° ENE
STARLINK-31 3.3 08:45:04 27° SW 08:46:50 70° SE 08:50:25 10° NE
Cosmos 1315 Rocket 4.0 08:44:40 10° NW 08:47:55 25° W 08:49:04 22° WSW
STARLINK-69 3.2 08:46:44 27° SW 08:48:36 80° SE 08:52:11 10° NE
STARLINK-21 3.2 08:48:11 26° SW 08:50:04 76° SE 08:53:40 10° NE
Cosmos 2058 3.8 08:48:46 22° SW 08:50:48 34° WNW 08:54:40 10° N
Resurs 1-4 Rocket 3.6 08:46:54 10° NNW 08:50:55 22° WNW 08:54:06 13° WSW
STARLINK-1028 3.9 08:49:23 22° SSW 08:51:51 58° SE 08:55:56 10° ENE
STARLINK-45 3.2 08:49:56 25° SW 08:51:55 87° SE 08:55:31 10° NE
STARLINK-70 3.1 08:51:10 24° SW 08:53:10 86° SE 08:56:46 10° NE
STARLINK-52 3.5 08:50:55 10° NW 08:54:07 60° NE 08:57:16 10° ESE
STARLINK-1010 3.8 08:52:24 21° SW 08:55:05 66° SE 08:59:19 10° ENE
STARLINK-76 3.2 08:53:00 23° SW 08:55:05 85° SE 08:58:42 10° NE
STARLINK-23 3.2 08:54:26 23° SW 08:56:33 88° SE 09:00:09 10° NE
STARLINK-1021 3.8 08:54:13 21° SW 08:56:52 64° SE 09:00:58 10° ENE
Cosmos 2366 rocket 4.1 08:50:48 10° S 08:57:01 81° E 09:03:20 10° N
STARLINK-32 3.2 08:55:55 22° SW 08:58:05 90° NNW 09:01:40 10° NE
Cosmos 2237 4.3 08:54:21 18° SW 08:58:42 70° WNW 09:04:27 10° NNE
STARLINK-40 3.2 08:57:35 21° SW 08:59:51 87° NW 09:03:27 10° NE
STARLINK-44 3.2 08:59:01 21° SW 09:01:20 84° NW 09:04:55 10° NE
STARLINK-1019 3.7 08:58:57 19° SW 09:01:47 71° SE 09:05:55 10° NE
CZ-4C R/B 3.8 08:59:38 10° SSE 09:03:12 57° ENE 09:06:47 10° N
GEOS 3 Rocket 4.1 08:58:32 10° S 09:03:19 38° WSW 09:08:13 10° NW
STARLINK-37 3.3 09:00:54 19° WSW 09:03:20 75° NW 09:06:56 10° NE
Landsat 5 4.4 08:59:27 10° SSE 09:03:53 57° ENE 09:08:15 10° N
STARLINK-36 3.2 09:02:01 19° WSW 09:04:26 79° NW 09:08:00 10° NE
STARLINK-1012 3.6 09:03:44 18° SW 09:06:46 78° SE 09:10:55 10° NE
Spot 4 Rocket 4.0 09:02:33 10° NNE 09:07:43 87° WNW 09:12:51 10° SSW
STARLINK-63 3.4 09:05:30 17° WSW 09:08:06 70° NW 09:11:41 10° NE
COBE Rocket 4.1 09:03:53 10° S 09:08:51 60° W 09:13:58 10° NNW
STARLINK-35 3.3 09:06:58 17° WSW 09:09:36 71° NW 09:13:12 10° NE
SL-16 R/B 3.5 09:05:59 12° WSW 09:10:18 28° NW 09:15:07 10° N
STARLINK-51 3.4 09:08:33 16° WSW 09:11:15 68° NW 09:14:50 10° NE
Cosmos 1844 Rocket 2.7 09:05:41 10° NNW 09:11:19 86° ENE 09:16:53 10° SSE
STARLINK-30 3.4 09:10:06 16° WSW 09:12:52 66° NW 09:16:27 10° NE
COSMOS 2428 3.6 09:07:33 10° S 09:12:57 47° ESE 09:18:22 10° NE
FALCON 9 DEB 3.8 09:10:16 10° NW 09:13:41 58° NE 09:17:06 10° ESE
USA 229 DEB 4.4 09:07:13 10° NW 09:13:47 36° WSW 09:20:34 10° S
USA 229 4.4 09:07:19 10° NW 09:13:54 36° WSW 09:20:42 10° S
STARLINK-72 3.5 09:11:39 15° WSW 09:14:29 64° NW 09:18:03 10° NE
STARLINK-1026 3.6 09:13:18 15° SW 09:16:43 88° NNW 09:20:52 10° NE
Cosmos 1408 Rocket 3.9 09:13:12 10° S 09:17:27 65° E 09:21:44 10° NNE
STARLINK-59 3.6 09:14:50 14° WSW 09:17:49 57° NW 09:21:21 10° NE
STARLINK-71 3.8 09:14:26 14° WSW 09:17:52 64° NW 09:21:53 10° NE
STARLINK-56 3.6 09:16:16 13° WSW 09:19:18 58° NW 09:22:50 10° NE
CZ-2D R/B 4.1 09:17:05 10° NNW 09:19:19 13° WNW 09:21:33 10° W
Meteor 1-28 Rocket 3.5 09:16:36 10° S 09:20:12 44° W 09:23:48 10° NNW
STARLINK-73 3.6 09:17:52 13° WSW 09:20:58 56° NW 09:24:30 10° NE
Cosmos 1538 Rocket 4.1 09:15:42 10° SSW 09:21:00 79° WNW 09:26:26 10° NNE
STARLINK-50 3.7 09:17:53 13° WSW 09:21:10 61° NW 09:24:54 10° NE
STARLINK-1013 3.6 09:18:06 13° SW 09:21:42 81° NW 09:25:52 10° NE
STARLINK-60 4.0 09:19:39 10° WNW 09:22:19 24° SW 09:24:58 10° S
STARLINK-38 3.7 09:19:25 12° WSW 09:22:34 54° NW 09:26:06 10° NE
CZ-2D R/B 3.7 09:18:22 10° N 09:22:35 58° WNW 09:26:51 10° SSW
STARLINK-68 3.8 09:19:35 12° WSW 09:22:51 51° NNW 09:26:24 10° NE
NOSS 3-1 (A) 4.4 09:15:43 10° NW 09:23:09 46° WSW 09:31:24 10° S
Cosmos 1727 Rocket 4.1 09:17:32 10° N 09:23:45 86° E 09:29:56 10° S
SL-4 R/B 2.8 09:19:29 10° WNW 09:23:52 37° SW 09:28:02 10° SSE
STARLINK-65 3.7 09:20:59 12° WSW 09:24:12 53° NNW 09:27:43 10° NE
STARLINK-53 3.9 09:22:36 11° WSW 09:25:54 49° NNW 09:29:24 10° NE
STARLINK-1009 3.7 09:22:51 12° WSW 09:26:40 75° NW 09:30:49 10° NE
SL-08 R/B 4.2 09:25:51 10° SSW 09:29:52 29° W 09:33:54 10° NW
STARLINK-1444 3.7 09:29:03 10° W 09:30:48 19° SW 09:32:36 10° S
Cosmos 1606 2.6 09:27:26 10° NNW 09:31:12 66° W 09:34:57 10° S
STARLINK-1452 3.7 09:29:41 10° W 09:31:25 18° SW 09:33:12 10° S
STARLINK-1015 3.8 09:27:39 11° WSW 09:31:39 69° NW 09:35:48 10° NE
STARLINK-1450 3.7 09:30:41 10° W 09:32:18 17° SW 09:33:59 10° S
STARLINK-1392 3.7 09:30:52 10° W 09:32:29 17° SW 09:34:11 10° S
STARLINK-1415 3.7 09:30:53 10° W 09:32:30 17° SW 09:34:11 10° S
STARLINK-1399 3.7 09:30:53 10° W 09:32:30 17° SW 09:34:12 10° S
STARLINK-1394 3.7 09:30:54 10° W 09:32:31 17° SW 09:34:12 10° S
STARLINK-1395 3.7 09:30:54 10° W 09:32:32 17° SW 09:34:13 10° S
STARLINK-1393 3.7 09:30:55 10° W 09:32:32 17° SW 09:34:13 10° S
STARLINK-1401 3.7 09:30:55 10° W 09:32:32 17° SW 09:34:13 10° S
STARLINK-1396 3.7 09:30:55 10° W 09:32:32 17° SW 09:34:14 10° S
STARLINK-1397 3.7 09:30:55 10° W 09:32:33 17° SW 09:34:14 10° S
STARLINK-1453 3.7 09:30:56 10° W 09:32:33 17° SW 09:34:14 10° S
STARLINK-1404 3.7 09:30:57 10° W 09:32:34 17° SW 09:34:15 10° S
STARLINK-1417 3.7 09:30:58 10° W 09:32:35 17° SW 09:34:16 10° S
STARLINK-1402 3.7 09:30:58 10° W 09:32:35 17° SW 09:34:16 10° S
STARLINK-1413 3.7 09:30:59 10° W 09:32:36 17° SW 09:34:17 10° S
STARLINK-1406 3.7 09:31:00 10° W 09:32:37 17° SW 09:34:18 10° S
STARLINK-1440 3.7 09:31:02 10° W 09:32:39 17° SW 09:34:20 10° S
STARLINK-1414 3.7 09:30:59 10° W 09:32:39 17° SW 09:34:23 10° S
STARLINK-1445 3.7 09:31:02 10° W 09:32:40 17° SW 09:34:21 10° S
STARLINK-1454 3.7 09:31:04 10° W 09:32:40 17° SW 09:34:22 10° S
STARLINK-1443 3.7 09:31:03 10° W 09:32:41 17° SW 09:34:21 10° S
STARLINK-1416 3.7 09:31:01 10° W 09:32:41 17° SW 09:34:25 10° S
STARLINK-1457 3.7 09:31:05 10° W 09:32:41 17° SW 09:34:22 10° S
STARLINK-1408 3.7 09:31:02 10° W 09:32:42 17° SW 09:34:26 10° S
STARLINK-1456 3.7 09:31:05 10° W 09:32:43 17° SW 09:34:23 10° S
STARLINK-1451 3.7 09:31:05 10° W 09:32:43 17° SW 09:34:23 10° S
STARLINK-1442 3.7 09:31:07 10° W 09:32:44 17° SW 09:34:24 10° S
STARLINK-1436 (VISORSAT) 3.7 09:31:04 10° W 09:32:45 17° SW 09:34:29 10° S
STARLINK-1419 3.7 09:31:05 10° W 09:32:45 17° SW 09:34:30 10° S
STARLINK-1405 3.7 09:31:09 10° W 09:32:46 17° SW 09:34:27 10° S
STARLINK-1398 3.7 09:31:06 10° W 09:32:46 18° SW 09:34:31 10° S
STARLINK-1421 3.7 09:31:10 10° W 09:32:47 17° SW 09:34:27 10° S
STARLINK-1410 3.7 09:31:10 10° W 09:32:47 17° SW 09:34:28 10° S
STARLINK-1400 3.7 09:31:11 10° W 09:32:47 17° SW 09:34:28 10° S
STARLINK-1407 3.7 09:31:11 10° W 09:32:48 17° SW 09:34:29 10° S
STARLINK-1439 3.7 09:31:12 10° W 09:32:48 17° SW 09:34:29 10° S
STARLINK-1409 3.7 09:31:12 10° W 09:32:49 17° SW 09:34:30 10° S
STARLINK-1422 3.7 09:31:10 10° W 09:32:50 17° SW 09:34:34 10° S
STARLINK-1351 3.7 09:31:13 10° W 09:32:50 17° SW 09:34:31 10° S
STARLINK-1370 3.7 09:31:13 10° W 09:32:50 17° SW 09:34:31 10° S
STARLINK-1420 3.7 09:31:10 10° W 09:32:51 17° SW 09:34:35 10° S
STARLINK-1418 3.7 09:31:14 10° W 09:32:51 17° SW 09:34:31 10° S
STARLINK-1434 3.7 09:31:14 10° W 09:32:51 17° SW 09:34:31 10° S
STARLINK-1403 3.7 09:31:15 10° W 09:32:52 17° SW 09:34:32 10° S
STARLINK-1460 3.7 09:31:13 10° W 09:32:53 17° SW 09:34:37 10° S
STARLINK-1433 3.7 09:31:16 10° W 09:32:53 17° SW 09:34:34 10° S
STARLINK-1411 3.7 09:31:18 10° W 09:32:55 17° SW 09:34:35 10° S
STARLINK-1438 3.7 09:31:18 10° W 09:32:55 17° SW 09:34:35 10° S
STARLINK-1458 3.7 09:31:16 10° W 09:32:56 17° SW 09:34:40 10° S
STARLINK-1423 3.7 09:31:19 10° W 09:32:59 17° SW 09:34:42 10° S
STARLINK-1446 3.7 09:31:20 10° W 09:33:00 17° SW 09:34:44 10° S
STARLINK-1437 3.7 09:31:21 10° W 09:33:01 17° SW 09:34:44 10° S
STARLINK-1447 3.7 09:31:23 10° W 09:33:03 17° SW 09:34:47 10° S
STARLINK-1455 3.7 09:31:24 10° W 09:33:04 17° SW 09:34:48 10° S
STARLINK-1441 3.7 09:31:25 10° W 09:33:05 17° SW 09:34:49 10° S
STARLINK-1448 3.7 09:31:28 10° W 09:33:08 17° SW 09:34:52 10° S
Cosmos 2360 Rocket 3.0 09:28:00 10° SW 09:33:10 39° WNW 09:38:26 10° N
STARLINK-1449 3.7 09:31:29 10° W 09:33:10 17° SW 09:34:53 10° S
STARLINK-1412 3.7 09:31:38 10° W 09:33:18 17° SW 09:35:02 10° S
Cosmos 1151 Rocket 3.0 09:29:03 10° NNW 09:33:27 72° W 09:37:48 10° S
ERS-2 2.8 09:30:20 10° SSW 09:33:41 34° W 09:37:04 10° NNW
H-2A R/B 2.3 09:29:29 10° S 09:33:46 52° W 09:38:10 10° NNW
deb Chang Zheng 4 4.3 09:30:08 10° NNE 09:34:20 53° E 09:38:29 10° S
Cosmos 1766 Rocket 4.0 09:30:29 10° SSW 09:34:38 45° WNW 09:38:49 10° N
Okean 3 Rocket 4.3 09:30:58 10° SSW 09:35:13 39° WNW 09:39:30 10° N
CZ-2C R/B 2.8 09:32:06 10° N 09:35:50 61° WNW 09:39:37 10° SSW
SWARM A 4.4 09:33:01 10° N 09:36:22 76° E 09:39:41 10° S
STARLINK-1016 3.9 09:32:31 10° WSW 09:36:37 63° NW 09:40:44 10° NE
Cosmos 2151 4.1 09:34:46 10° SW 09:38:25 27° WNW 09:42:08 10° NNW
Cosmos 1461 4.3 09:35:30 10° NNW 09:40:04 49° NE 09:44:40 10° SE
STARLINK-24 4.4 09:37:43 10° WSW 09:41:34 43° NNW 09:45:24 10° NE
STARLINK-1008 4.0 09:37:33 10° WSW 09:41:38 58° NNW 09:45:44 10° NE
Cosmos 1515 Rocket 3.7 09:37:45 10° N 09:42:08 80° E 09:46:28 10° S
SAR-Lupe-4 3.8 09:39:23 10° SSE 09:42:57 74° ENE 09:46:33 10° N
Cosmos 2333 Rocket 2.3 09:38:24 10° SSW 09:44:03 82° WNW 09:49:46 10° NNE
